Regional Weather Roundup
Issued by NWS

Home | Current Version | Previous Version | Text Only | Print | Product List | Glossary Off
Versions: 1 2 3 4 5 6 7 8 9 10 11 12 13 14 15 16 17 18 19 20 21 22 23 24 25 26 27 28 29 30 31 32 33 34 35 36 37 38 39 40 41 42 43 44 45 46 47 48 49 50

000
ASUS43 KMKX 171659
RWRWI

WISCONSIN REGIONAL WEATHER ROUNDUP
NATIONAL WEATHER SERVICE MILWAUKEE/SULLIVAN WI
1100 AM CST SUN DEC 17 2017

NOTE: "FAIR" INDICATES FEW OR NO CLOUDS BELOW 12,000 FEET WITH NO
SIGNIFICANT WEATHER AND/OR OBSTRUCTIONS TO VISIBILITY.

WIZ001-002-006>008-014>016-023>028-171800-
NORTHWEST WISCONSIN

CITY           SKY/WX    TMP DP  RH WIND       PRES   REMARKS
SUPERIOR ARPT  CLOUDY    24  19  83 CALM      30.10F
ASHLAND        CLOUDY    24  21  88 CALM      30.10F
HAYWARD        CLOUDY    26  22  84 S8        30.07S WCI  18
SIREN          CLOUDY    23  22  96 CALM      30.09F FOG
CUMBERLAND     FOG       25  23  93 SE3       30.07F VSB 1/2
RICE LAKE      FOG       26  26  99 CALM      30.09F VSB 3/4
CHETEK         CLOUDY    26  26  99 SE7       30.08F WCI  18
LADYSMITH      CLOUDY    27  25  89 SE9       30.09F WCI  18
EAU CLAIRE     CLOUDY    27  25  92 SE3       30.07F FOG
MENOMONIE      CLOUDY    28  27  96 E3        30.08F FOG
NEW RICHMOND   CLOUDY    26  24  94 S7        30.08F FOG     WCI  18
OSCEOLA        CLOUDY    25  25 100 CALM      30.12S FOG
$$

WIZ003>005-009-010-017-018-171800-
NORTH CENTRAL WISCONSIN

CITY           SKY/WX    TMP DP  RH WIND       PRES   REMARKS
MANITOWISH WTR CLOUDY    22  22 100 SE6       30.06S WCI  14
ARBOR VITAE    CLOUDY    23  21  93 S3        30.06S
WOODRUFF       CLOUDY    23  21  93 S3        30.06S
RHINELANDER    CLOUDY    24  24 100 S5        30.06F FOG     WCI  18
EAGLE RIVER    CLOUDY    22  22 100 S3        30.06S FOG
LAND O LAKES   CLOUDY    23  22  96 S5        30.07F FOG     WCI  17
PHILLIPS       CLOUDY    25  24  96 S7        30.06F WCI  17
TOMAHAWK       CLOUDY    24  22  94 SE3       30.08F FOG
MEDFORD        CLOUDY    24  23  96 SE7       30.06F FOG     WCI  16
MERRILL        CLOUDY    25  25  97 SE7       30.09F FOG     WCI  18
$$

WIZ029-030-035-036-043>047-171800-
CENTRAL WISCONSIN

CITY           SKY/WX    TMP DP  RH WIND       PRES   REMARKS
WAUSAU         CLOUDY    25  24  96 E6        30.06F FOG     WCI  18
MOSINEE        NOT AVBL
MARSHFIELD     CLOUDY    25  25 100 E6        30.05F FOG     WCI  18
STEVENS POINT  CLOUDY    24  24 100 E6        30.09F FOG     WCI  17
WAUPACA        CLOUDY    29  25  85 NE3       30.09F FOG
WAUTOMA        CLOUDY    28  26  92 NE8       30.08F FOG     WCI  20
WISC RAPIDS    CLOUDY    27  24  89 SE6       30.08F FOG     WCI  20
CAMP DOUGLAS   NOT AVBL
$$

WIZ011>013-019>022-031-037>040-048>050-171800-
NORTHEAST WISCONSIN

CITY           SKY/WX    TMP DP  RH WIND       PRES   REMARKS
ANTIGO         FOG       23  23 100 SE3       30.08F VSB 3/4
SHAWANO        CLOUDY    26  22  86 CALM      30.12F
OCONTO         CLOUDY    30  26  88 SE5       30.13F WCI  25
STURGEON BAY   CLOUDY    31  27  85 SE10      30.12F WCI  22
GREEN BAY      CLOUDY    29  24  82 N3        30.11F
MANITOWOC      CLOUDY    31  28  89 E7        30.11F WCI  24
APPLETON       CLOUDY    27  23  86 NE6       30.08F WCI  20
CLINTONVILLE   NOT AVBL
OSHKOSH        CLOUDY    31  28  89 E8        30.08F FOG     WCI  23
$$

WIZ032>034-041-042-053>061-171800-
SOUTHWEST WISCONSIN

CITY           SKY/WX    TMP DP  RH WIND       PRES   REMARKS
LA CROSSE      CLOUDY    31  27  85 E3        30.07F
SPARTA         CLOUDY    29  28  93 E9        30.08F WCI  21
VIROQUA        CLOUDY    29  29 100 CALM      30.04F
BOSCOBEL       CLOUDY    34  30  85 VRB3      30.07F FOG
PRAIRIE DU CHI CLOUDY    33  28  85 E5        30.06S HAZE    WCI  28
PLATTEVILLE    CLOUDY    34  32  93 E8        30.05S WCI  27
$$

WIZ056-057-062-063-064-067-068-171800-
SOUTH CENTRAL WISCONSIN

CITY           SKY/WX    TMP DP  RH WIND       PRES   REMARKS
REEDSBURG      CLOUDY    30  29  97 E5        30.07S WCI  25
BARABOO/DELLS  CLOUDY    29  27  92 E5        30.07S WCI  24
LONE ROCK      CLOUDY    33  30  88 E8        30.08R FOG     WCI  26
MINERAL POINT  CLOUDY    34  34 100 E7        30.04S FOG     WCI  28
MADISON        CLOUDY    33  30  88 E10       30.07S FOG     WCI  25
MIDDLETON      CLOUDY    34  31  90 E8        30.07S WCI  27
WATERTOWN      CLOUDY    32  32 100 E9        30.07F WCI  24
MONROE         CLOUDY    32  32 100 E7        30.05S FOG     WCI  26
JANESVILLE     CLOUDY    36  32  87 E12       30.06S FOG     WCI  27
$$

WIZ051-052-058>065-066-070>072-171800-
SOUTHEAST WISCONSIN

CITY           SKY/WX    TMP DP  RH WIND       PRES   REMARKS
MILWAUKEE      CLOUDY    34  31  88 E9        30.07F FOG     WCI  27
WAUKESHA       CLOUDY    30  28  93 E8        30.08F FOG     WCI  23
MILWAUKEE/TIMM CLOUDY    32  27  80 E5        30.09F WCI  27
RACINE         CLOUDY    34  31  88 E9        30.08F FOG     WCI  27
BURLINGTON     CLOUDY    50  50 100 E6        30.07S FOG
KENOSHA        CLOUDY    35  31  85 E10       30.06F FOG     WCI  27
FOND DU LAC    CLOUDY    32  26  78 E9        30.08F WCI  24
SHEBOYGAN      CLOUDY    30  28  92 E8        30.09F WCI  22
WEST BEND      CLOUDY    30  30 100 E9        30.08F WCI  22
JUNEAU         CLOUDY    30  28  92 E8        30.08F FOG     WCI  23
$$

LSZ147-162-171800-
LAKE SUPERIOR

STATION/POSITION TIME  TEMP    WIND        PRES    WAVE
                       AIR SEA DIR/SP/G            HT/PER
                 (UTC) (F)     (DEG/KT/KT) (MB)    (FT/S)
DEVILS ISLAND    1600   26     210/ 10/ 12 1020.6F
SAXON HARBOR     1640   28                 1019.0F
$$

LMZ867-665-643>646-171800-
LAKE MICHIGAN

STATION/POSITION TIME  TEMP    WIND        PRES    WAVE
                       AIR SEA DIR/SP/G            HT/PER
                 (UTC) (F)     (DEG/KT/KT) (MB)    (FT/S)
NORTHPORT PIER   1640   30     120/ 11/ 14 1020.3F
KEWAUNEE LAKESHO 1630   31     120/  8/ 12 1019.4F
SHEBOYGAN LAKESH 1600   30      90/ 10/ 13 1020.4F
PORT WASHINGTON  1630   32      90/  7/ 11 1020.7S
MILWAUKEE LAKESH 1630   33      80/ 10/ 11   N/A
KENOSHA   LAKESH 1600   34      90/ 12/ 13 1019.0
$$

TC  - TEMPERATURE IN CELSIUS
VSB - VISIBILITY IN STATUTE MILES
WCI - WIND CHILL INDEX
HX  - HEAT INDEX





USA.gov is the U.S. government's official web portal to all federal, state and local government web resources and services.